Targu Mures, Romania

7:55 AM EEST on September 20, 2018 (GMT +0300)
Vidrasau

Weather History for LRTM - July, 2018

Change the Weather History Date:

Thursday, July 12, 2018

  Actual Average Record
Temperature  
Mean Temperature 70 °F -  
Max Temperature 82 °F 77 °F 93 °F (2002)
Min Temperature 58 °F 56 °F 45 °F (2015)
Cooling Degree Days 5    
Growing Degree Days 20 (Base 50)    
Moisture  
Dew Point 63 °F    
Average Humidity 80    
Maximum Humidity 100    
Minimum Humidity 46    
Precipitation  
Precipitation 0.08 in - - ()
Sea Level Pressure  
Sea Level Pressure 29.98 in    
Wind  
Wind Speed 2 mph ()    
Max Wind Speed 10 mph    
Max Gust Speed -    
Visibility 6.6 miles    
Events Rain , Thunderstorm    
Averages and records for this station are not official NWS values.
T = Trace of Precipitation, MM = Missing Value Source: Averaged Metar Reports

Daily Weather History Graph

Daily Weather History Graph

Search for Another Location

Airport or City:

Astronomy

Jul. 12, 2018 Rise Set
Actual Time 5:40 AM EEST 9:13 PM EEST
Civil Twilight 5:02 AM EEST 9:51 PM EEST
Nautical Twilight 4:12 AM EEST 10:41 PM EEST
Astronomical Twilight 3:05 AM EEST 11:48 PM EEST
Moon 4:50 AM EEST (7/12) 8:35 PM EEST (7/12)
Length of Visible Light 16h 48m
Length of Day
15h 32m
Waning Crescent, 1% of the Moon is Illuminated
Jul 12
Waning Crescent
Jul 13
New
Jul 19
First Quarter
Jul 27
Full
Aug 4
Last Quarter

Hourly Weather History & Observations

Time (EEST) Temp. Heat Index Dew Point Humidity Pressure Visibility Wind Dir Wind Speed Gust Speed Precip Events Conditions
12:00 AM 64.4 °F - 60.8 °F 88% 29.95 in 6.2 mi Calm Calm - N/A   Unknown
12:30 AM 62.6 °F - 60.8 °F 94% 29.95 in 6.2 mi East 2.3 mph - N/A   Unknown
1:00 AM 64 °F - 62 °F 93% 29.97 in 6 mi Calm Calm - -   Scattered Clouds
1:00 AM 62.6 °F - 60.8 °F 94% 29.98 in 6.2 mi Calm Calm - N/A   Unknown
1:30 AM 60.8 °F - 60.8 °F 100% 29.98 in 6.2 mi Calm Calm - N/A   Unknown
2:00 AM 64 °F - 63 °F 95% 29.98 in 6 mi Calm Calm - -  
2:00 AM 60.8 °F - 59.0 °F 94% 29.95 in 6.2 mi Calm Calm - N/A   Unknown
2:30 AM 60.8 °F - 59.0 °F 94% 29.95 in 6.2 mi Calm Calm - N/A   Unknown
3:00 AM 62 °F - 62 °F 99% 29.98 in 6 mi Calm Calm - -  
3:00 AM 59.0 °F - 59.0 °F 100% 29.95 in 4.3 mi Calm Calm - N/A   Unknown
3:30 AM 60.8 °F - 59.0 °F 94% 29.98 in 6.2 mi Calm Calm - N/A   Unknown
4:00 AM 60 °F - 60 °F 100% 29.98 in 6 mi Calm Calm - -  
4:00 AM 59.0 °F - 59.0 °F 100% 29.98 in 4.3 mi Calm Calm - N/A   Unknown
4:30 AM 59.0 °F - 59.0 °F 100% 29.98 in 2.5 mi Calm Calm - N/A   Mist
5:00 AM 60 °F - 60 °F 100% 29.99 in 6 mi Calm Calm - -  
5:00 AM 59.0 °F - 59.0 °F 100% 29.98 in 6.2 mi Calm Calm - N/A   Unknown
5:30 AM 59.0 °F - 57.2 °F 94% 29.98 in 4.3 mi Calm Calm - N/A   Partly Cloudy
6:00 AM 59 °F - 59 °F 100% 29.99 in 6 mi Calm Calm - -   Scattered Clouds
6:00 AM 57.2 °F - 57.2 °F 100% 29.98 in 3.7 mi Calm Calm - N/A   Unknown
6:30 AM 59.0 °F - 57.2 °F 94% 29.98 in 3.7 mi Calm Calm - N/A   Unknown
7:00 AM 60 °F - 60 °F 100% 30.00 in 6 mi Calm Calm - -   Scattered Clouds
7:00 AM 60.8 °F - 60.8 °F 100% 29.98 in - ENE 3.5 mph - N/A   Partly Cloudy
7:30 AM 64.4 °F - 60.8 °F 88% 29.98 in 4.3 mi ENE 3.5 mph - N/A   Partly Cloudy
8:00 AM 64 °F - 63 °F 94% 29.99 in 6 mi Calm Calm - -   Scattered Clouds
8:00 AM 64.4 °F - 62.6 °F 94% 29.98 in 3.7 mi East 4.6 mph - N/A   Partly Cloudy
8:30 AM 66.2 °F - 62.6 °F 88% 29.98 in 5.0 mi Variable 1.2 mph - N/A   Partly Cloudy
9:00 AM 69 °F - 63 °F 76% 29.99 in 12 mi Calm Calm - -   Clear
9:00 AM 69.8 °F - 64.4 °F 83% 29.98 in - Variable 2.3 mph - N/A   Clear
9:30 AM 71.6 °F - 64.4 °F 78% 29.98 in 6.2 mi Variable 2.3 mph - N/A   Partly Cloudy
10:00 AM 71 °F - 64 °F 74% 29.99 in 12 mi Calm Calm - -   Scattered Clouds
10:00 AM 75.2 °F - 66.2 °F 73% 29.98 in 6.2 mi Variable 2.3 mph - N/A   Partly Cloudy
10:30 AM 75.2 °F - 66.2 °F 73% 29.98 in 6.2 mi Calm Calm - N/A   Partly Cloudy
11:00 AM 76 °F - 65 °F 61% 29.98 in 12 mi Calm Calm - -   Scattered Clouds
11:00 AM 77.0 °F - 66.2 °F 69% 29.98 in 6.2 mi Variable 1.2 mph - N/A   Partly Cloudy
11:30 AM 78.8 °F - 66.2 °F 65% 29.98 in 6.2 mi Variable 2.3 mph - N/A   Partly Cloudy
12:00 PM 78.8 °F - 64.4 °F 61% 29.98 in 6.2 mi NW 3.5 mph - N/A   Partly Cloudy
12:30 PM 78.8 °F - 64.4 °F 61% 29.98 in 6.2 mi NW 4.6 mph - N/A   Partly Cloudy
1:00 PM 79 °F - 64 °F 51% 29.96 in 12 mi Calm Calm - -   Mostly Cloudy
1:00 PM 82.4 °F 83.4 °F 62.6 °F 51% 29.98 in 6.2 mi Variable 2.3 mph - N/A   Scattered Clouds
1:30 PM 82.4 °F 83.9 °F 64.4 °F 54% 29.98 in 6.2 mi Variable 3.5 mph - N/A   Scattered Clouds
2:00 PM 82.4 °F 83.9 °F 64.4 °F 54% 29.95 in 5.0 mi South 10.4 mph - N/A   Scattered Clouds
2:30 PM 80.6 °F 81.8 °F 62.6 °F 54% 29.95 in 5.0 mi SW 4.6 mph - N/A Thunderstorm Scattered Clouds
3:00 PM 80 °F - 63 °F 46% 29.94 in 12 mi WSW 4.5 mph - - Thunderstorm Thunderstorm
3:00 PM 77.0 °F - 66.2 °F 69% 29.98 in 4.3 mi WNW 8.1 mph - N/A Thunderstorm Mostly Cloudy
3:30 PM 75.2 °F - 66.2 °F 73% 29.98 in 4.3 mi West 8.1 mph - N/A Rain Light Rain Showers
4:00 PM 74 °F - 63 °F 60% 29.96 in 12 mi NW 2.2 mph - - Thunderstorm Thunderstorm
4:00 PM 77.0 °F - 69.8 °F 78% 29.98 in 4.3 mi SW 8.1 mph - N/A   Scattered Clouds
4:30 PM 78.8 °F - 64.4 °F 61% 29.98 in 6.2 mi NW 6.9 mph - N/A   Partly Cloudy
5:00 PM 80 °F - 65 °F 51% 29.95 in 12 mi NNE 2.2 mph - - Thunderstorm Light Thunderstorm
5:00 PM 78.8 °F - 62.6 °F 57% 29.98 in 6.2 mi NW 4.6 mph - N/A   Partly Cloudy
5:30 PM 77.0 °F - 66.2 °F 69% 29.95 in 6.2 mi NW 10.4 mph - N/A   Partly Cloudy
6:00 PM 77 °F - 65 °F 58% 29.95 in 12 mi NW 2.2 mph - -   Partly Cloudy
6:30 PM 77.0 °F - 64.4 °F 65% 29.95 in 6.2 mi NNW 9.2 mph - N/A   Partly Cloudy
7:00 PM 73 °F - 63 °F 62% 29.96 in 12 mi NE 6.7 mph - -   Partly Cloudy
7:00 PM 78.8 °F - 62.6 °F 57% 29.95 in 6.2 mi NNW 9.2 mph - N/A   Partly Cloudy
7:30 PM 75.2 °F - 62.6 °F 65% 29.98 in 6.2 mi NNW 5.8 mph - N/A   Partly Cloudy
8:00 PM 75.2 °F - 62.6 °F 65% 29.98 in 6.2 mi North 4.6 mph - N/A   Partly Cloudy
8:30 PM 73.4 °F - 64.4 °F 73% 29.98 in 6.2 mi Variable 1.2 mph - N/A Rain Light Rain
9:00 PM 71.6 °F - 64.4 °F 78% 29.98 in 6.2 mi Calm Calm - N/A   Mostly Cloudy
9:30 PM 69.8 °F - 66.2 °F 88% 29.98 in 6.2 mi Calm Calm - N/A   Partly Cloudy
10:00 PM 68.0 °F - 66.2 °F 94% 29.98 in 6.2 mi Variable 1.2 mph - N/A   Mostly Cloudy
10:30 PM 68.0 °F - 66.2 °F 94% 30.01 in 6.2 mi NE 2.3 mph - N/A   Partly Cloudy
11:00 PM 67 °F - 65 °F 91% 30.00 in 6 mi Calm Calm - -   Scattered Clouds
11:00 PM 66.2 °F - 64.4 °F 94% 30.01 in 6.2 mi Calm Calm - N/A   Mostly Cloudy
11:30 PM 66.2 °F - 64.4 °F 94% 30.01 in 6.2 mi SW 3.5 mph - N/A   Mostly Cloudy